COSMO-SKYMED 4

Last updated on Wed Mar 11 2026 00:02:34 GMT+0000 (Coordinated Universal Time)

1 37216U 10060A 26069.54080429 .00001103 00000+0 14510-3 0 9999 2 37216 97.8868 254.5645 0001392 86.5473 273.5900 14.82165576829950
UTC large
Height (km)
Speed (km/s)
/
Latitude / Longitude
Inclination (degrees)
Orbital Period (minutes)
Azimuth
Elevation
Range (km)
Doppler Factor

Next 0 passes for location: London (51.5072 / 0.1276)

Sorry there are no passes over London.